Location: Caltech
(34.1382°N, 118.1253°W)
Time: 10:33:41
(UTC-08:00)

Iridium 18 - Visible Passes

Search period start: 21 February 2018 00:00
Search period end: 03 March 2018 00:00
Orbit: 762 x 764 km, 86.4° (Epoch: 20 February)

Date Brightness Start Highest point End Pass type
(mag) Time Alt. Az. Time Alt. Az. Time Alt. Az.
21 Feb 7.4 20:04:52 10° N 20:06:25 20° N 20:06:25 20° N visible
22 Feb 6.7 19:27:13 10° NNE 19:29:43 27° NNE 19:29:43 27° NNE visible
22 Feb 8.3 21:09:08 10° NW 21:09:58 12° NW 21:09:58 12° NW visible
23 Feb 6.7 18:50:14 10° NNE 18:53:15 21° ENE 18:53:15 21° ENE visible
23 Feb 7.1 20:30:00 10° NNW 20:33:31 30° WNW 20:33:31 30° WNW visible
24 Feb 5.6 19:51:45 10° N 19:56:53 73° W 19:57:31 64° SW visible
25 Feb 5.6 19:14:03 10° N 19:19:04 51° E 19:22:50 17° SSE visible
25 Feb 8.3 20:56:18 10° NW 20:58:56 14° W 21:01:34 10° WSW visible
26 Feb 6.5 18:36:58 10° NNE 18:41:04 24° E 18:45:09 10° SE visible
26 Feb 7.2 20:16:58 10° NNW 20:21:25 30° W 20:25:52 10° SW visible
27 Feb 5.8 19:38:39 10° N 19:43:46 67° W 19:48:50 10° S visible
28 Feb 5.5 19:00:53 10° N 19:05:57 56° E 19:10:59 10° SSE visible
28 Feb 8.4 20:43:31 10° NW 20:45:46 13° W 20:48:01 10° WSW visible
01 Mar 6.4 18:23:42 10° NNE 18:27:59 26° E 18:32:13 10° SE visible
01 Mar 7.4 20:03:56 10° NNW 20:08:16 28° W 20:12:35 10° SW visible
02 Mar 6.0 19:25:33 10° N 19:30:38 61° W 19:35:41 10° SSW visible
